Wind_Speed
44 43 44 44 44 44 43 43 42 41 40 40 39 39 38 37 36 35 34 34 34 33 33 32 31 31 31 30 30 30 30 30 29 29 29 29 30 30 30 29 29 29 29
46 45 45 46 46 46 46 45 45 45 44 43 42 41 41 40 39 38 37 36 36 36 35 35 34 33 33 33 32 32 32 32 32 31 31 31 32 32 32 31 31 31 31
47 47 47 47 47 47 48 48 47 46 46 45 45 44 43 43 42 41 41 40 38 38 37 36 36 36 36 36 35 35 34 34 34 34 34 33 34 34 34 33 33 33 32
48 48 48 48 47 48 48 49 49 49 48 47 47 46 46 45 45 44 43 43 41 40 39 38 38 38 38 38 37 37 37 36 35 35 35 36 36 36 36 35 35 35 35
48 49 49 49 48 49 49 49 50 50 50 49 49 48 47 47 47 47 46 45 44 43 41 41 41 40 40 39 39 38 39 38 38 38 38 38 38 38 37 37 37 37 37
47 48 49 49 50 50 50 50 50 51 51 51 51 50 49 49 49 48 48 47 46 45 43 43 43 43 42 42 41 40 40 40 40 39 39 39 39 39 39 39 40 40 39
46 47 48 49 50 51 51 51 51 51 52 52 53 52 51 51 50 50 49 49 48 47 46 45 44 44 44 43 42 41 41 41 41 41 41 40 41 41 41 41 41 41 41
47 47 48 49 50 51 52 52 53 53 52 52 53 52 53 52 51 51 50 49 49 49 48 47 47 47 46 44 43 43 43 43 43 43 43 42 43 43 42 42 42 42 42
47 48 48 49 50 50 51 52 53 54 53 53 53 53 53 52 52 52 51 50 50 50 50 49 49 48 48 46 45 45 45 45 45 45 45 46 45 45 44 43 43 43 43
47 47 47 48 49 49 50 50 51 52 53 52 53 54 55 54 53 52 51 51 51 51 51 51 50 49 48 48 47 47 46 47 47 46 47 48 47 47 46 45 45 45 46
44 45 45 46 47 48 48 49 50 50 52 52 52 53 55 55 54 54 53 51 51 51 50 50 51 49 49 49 49 49 48 48 47 47 48 49 49 48 48 47 46 46 47
43 43 43 45 45 46 47 48 49 49 51 52 52 52 53 54 53 54 54 53 52 51 51 50 50 51 51 50 50 50 49 49 48 48 48 48 48 48 48 48 47 47 47
42 42 43 44 44 44 45 45 46 47 48 50 51 51 52 53 54 54 55 53 52 51 52 52 51 52 52 52 50 50 50 50 50 49 48 48 48 48 48 48 49 48 47
39 41 42 43 43 43 43 43 43 43 44 46 48 49 50 51 51 52 52 52 53 52 53 53 54 54 53 52 51 51 52 50 50 50 49 49 48 49 49 49 49 48 48
37 38 39 40 41 40 40 40 42 42 43 45 46 47 48 47 47 48 50 51 52 52 52 52 53 53 53 53 52 53 53 52 51 50 49 49 49 49 49 50 49 49 49
33 33 35 37 38 39 40 40 41 42 43 45 47 47 47 48 48 49 50 52 52 52 52 52 52 53 54 55 55 53 52 52 52 51 51 51 50 50 51 51 50 49 49
31 32 33 34 36 37 38 39 40 41 42 44 46 46 47 49 49 50 50 51 53 53 53 52 52 52 52 53 53 53 53 53 53 53 53 53 52 52 52 52 51 51 51
28 29 31 32 33 33 35 36 38 39 40 41 43 45 47 48 49 49 50 51 51 52 52 52 52 52 52 52 52 52 54 55 55 54 54 54 53 53 52 52 51 51 51
25 26 27 28 29 30 32 34 36 37 38 40 43 45 46 47 48 50 51 51 51 51 52 53 52 52 53 52 51 51 53 54 54 54 54 54 53 52 52 52 52 51 50
23 23 24 26 27 29 31 33 35 37 37 38 40 42 44 45 47 49 50 50 50 50 52 53 53 53 53 52 52 51 51 51 52 53 53 52 52 52 52 52 51 51 50
23 23 25 26 27 29 31 32 34 35 36 37 37 39 41 43 44 46 47 49 49 50 51 52 52 53 53 52 51 50 49 49 50 51 51 50 50 51 52 51 50 50 50
24 25 26 27 28 29 30 31 32 33 34 35 37 38 40 42 43 44 46 46 47 48 49 51 51 51 52 52 51 50 49 48 48 49 49 49 49 50 50 49 48 48 47
26 27 27 28 29 29 30 31 32 32 34 35 37 39 41 40 42 43 45 45 45 45 47 48 48 49 50 51 50 49 48 47 46 47 47 46 47 47 47 47 46 45 45
27 28 29 29 29 30 31 32 33 34 35 36 37 38 39 39 41 42 43 44 44 44 44 45 46 46 47 48 48 48 48 48 46 45 46 45 44 45 44 44 45 45 44
28 29 30 31 31 31 32 33 35 35 36 36 37 38 39 41 41 43 43 44 43 42 42 43 44 44 44 45 46 47 47 47 45 45 45 45 44 44 43 42 42 43 43
30 31 32 32 33 34 34 35 35 35 36 36 37 37 39 40 41 42 43 43 42 42 42 43 43 42 43 43 43 44 45 45 45 44 43 43 42 42 40 39 40 41 41
Wind_Direction
262 262 262 261 261 260 260 260 261 261 262 263 264 264 265 265 265 265 267 268 269 269 270 272 274 275 275 276 277 277 278 280 281 282 283 283 284 285 286 287 289 289 289
262 261 261 261 261 260 260 260 260 260 261 261 262 263 264 264 264 265 265 267 268 269 270 271 273 274 275 275 275 276 277 278 279 281 282 283 283 284 285 285 286 287 288
263 263 262 261 261 260 260 259 259 259 259 259 260 262 263 264 264 264 265 266 267 268 269 271 272 273 274 274 274 274 275 276 278 279 280 282 283 283 284 284 285 286 286
263 263 263 262 262 261 261 259 259 259 259 259 259 260 261 262 263 263 264 265 266 267 268 270 271 273 273 274 274 274 274 275 276 278 280 281 282 283 283 283 284 284 285
263 263 262 262 262 261 261 259 258 258 258 258 258 259 260 261 262 263 263 264 265 266 267 269 270 272 273 273 273 274 274 274 275 276 279 280 281 282 282 282 282 283 284
265 264 263 262 262 261 261 260 259 258 257 257 258 258 258 259 261 262 263 264 264 265 266 268 269 271 272 272 271 272 274 274 275 277 279 280 281 281 282 282 282 283 283
267 265 263 262 262 261 261 261 260 258 257 257 257 257 257 258 260 262 262 263 263 264 266 267 268 271 271 271 271 271 273 274 275 276 278 279 280 281 281 281 282 282 282
267 266 265 263 261 261 260 260 260 259 258 258 258 257 256 257 258 260 261 262 263 263 265 266 267 270 271 270 270 270 272 273 274 275 277 278 279 279 280 281 281 281 281
268 267 266 263 262 261 260 260 260 259 257 257 257 257 256 257 258 258 259 260 262 262 262 264 266 268 268 269 270 270 271 272 273 275 276 277 278 278 279 280 280 280 280
269 268 266 264 263 262 260 260 260 259 256 256 257 256 257 257 257 257 258 260 262 262 263 264 265 266 267 269 270 270 270 272 273 275 276 276 277 277 276 278 279 280 281
268 267 266 265 263 261 260 260 260 259 256 255 256 256 256 257 257 258 259 260 260 261 263 264 265 265 267 269 269 270 271 272 274 275 276 277 276 276 276 276 278 280 281
269 267 266 265 264 262 261 260 260 260 258 256 256 256 257 257 258 259 260 259 260 260 262 264 264 264 265 267 268 269 270 271 274 276 277 276 276 275 275 276 277 279 280
270 268 266 265 264 264 263 261 261 261 259 257 256 256 257 258 258 259 259 259 260 261 262 263 264 265 265 266 267 268 270 271 273 275 276 275 275 276 275 276 277 278 279
271 269 269 267 265 265 265 263 262 262 260 257 256 256 257 258 259 260 260 260 260 260 262 262 263 265 264 265 266 267 269 271 273 274 275 274 274 276 275 277 277 277 278
275 271 269 269 267 265 264 264 262 263 262 259 257 257 257 258 259 261 261 261 262 261 259 261 263 263 264 264 267 268 269 270 272 273 274 274 274 275 275 277 277 276 277
277 274 271 269 268 267 267 267 266 266 264 260 257 258 258 259 260 262 263 262 262 262 261 262 263 264 265 267 267 268 270 271 273 273 273 274 275 276 276 276 275 275 277
279 277 274 272 271 270 270 269 269 269 267 262 260 260 260 259 260 263 264 264 264 264 265 265 264 265 267 267 269 271 272 272 274 274 274 275 275 276 277 275 274 274 276
283 281 277 274 273 271 272 272 272 270 268 265 262 262 262 261 262 264 265 267 267 266 266 266 265 267 269 270 271 272 272 272 272 273 274 275 275 276 276 274 273 274 275
287 287 283 279 277 276 276 276 275 273 271 268 265 264 265 263 264 265 266 267 267 268 267 266 266 267 267 270 272 272 272 272 272 273 274 274 275 276 276 275 275 275 275
292 291 288 285 282 280 280 279 277 275 274 273 269 267 267 266 266 267 268 268 268 268 268 268 267 267 268 270 271 272 273 272 272 273 273 274 274 275 276 277 276 275 275
295 293 291 289 289 287 284 282 281 279 276 275 273 270 270 269 268 269 269 269 268 267 268 269 269 268 269 270 272 273 274 273 273 274 273 274 274 274 276 277 275 274 275
297 295 294 294 294 292 289 287 287 284 280 277 274 273 273 273 271 271 271 271 271 270 270 271 270 270 269 270 271 273 273 274 273 274 275 274 274 274 275 276 276 275 275
298 297 296 296 297 297 295 292 289 289 285 282 279 277 276 276 274 272 272 272 273 273 272 272 271 271 270 270 271 271 272 274 276 276 275 274 274 274 274 275 276 276 276
299 298 298 298 297 297 296 295 293 292 290 287 284 281 279 279 277 276 275 274 274 274 273 273 272 271 271 270 270 271 271 272 275 276 275 273 274 274 275 275 275 276 277
301 300 299 298 297 296 295 295 294 293 293 291 288 284 281 280 279 279 278 276 275 274 274 273 271 271 271 271 271 271 272 272 274 275 275 274 274 274 273 274 275 276 277
303 302 300 299 297 297 296 297 296 294 293 292 289 286 283 283 280 279 279 276 274 274 273 274 273 272 272 273 274 274 275 274 274 276 275 273 273 274 272 273 275 276 278
Height
5802 5803 5805 5806 5808 5809 5811 5813 5814 5816 5817 5819 5820 5821 5822 5823 5824 5825 5826 5826 5827 5828 5828 5828 5829 5829 5829 5829 5829 5829 5828 5828 5828 5827 5826 5826 5825 5824 5823 5822 5820 5819 5818
5791 5793 5795 5796 5798 5799 5801 5803 5805 5806 5808 5810 5811 5813 5814 5815 5816 5817 5818 5819 5820 5820 5821 5822 5822 5822 5822 5822 5822 5822 5822 5821 5821 5820 5820 5819 5818 5817 5816 5815 5814 5812 5811
5781 5782 5784 5786 5787 5789 5790 5792 5794 5796 5798 5800 5802 5804 5805 5806 5807 5809 5810 5811 5812 5812 5813 5814 5814 5814 5814 5814 5814 5814 5814 5814 5813 5813 5812 5812 5811 5810 5809 5807 5806 5805 5804
5769 5771 5773 5774 5776 5777 5779 5781 5783 5785 5788 5790 5792 5794 5795 5797 5798 5799 5801 5802 5803 5804 5804 5805 5806 5806 5806 5806 5806 5806 5806 5806 5805 5805 5804 5803 5803 5802 5801 5800 5798 5797 5796
5758 5759 5761 5763 5764 5766 5768 5770 5772 5774 5776 5779 5781 5783 5784 5786 5788 5789 5791 5792 5793 5795 5795 5796 5797 5797 5797 5797 5797 5797 5797 5797 5797 5796 5796 5795 5794 5793 5792 5791 5790 5788 5787
5746 5747 5749 5751 5752 5754 5756 5758 5760 5762 5765 5767 5769 5772 5774 5775 5777 5779 5781 5782 5784 5785 5786 5786 5787 5788 5788 5788 5788 5788 5788 5788 5788 5787 5786 5786 5785 5784 5783 5781 5780 5779 5777
5735 5736 5737 5739 5740 5742 5744 5745 5747 5750 5752 5754 5756 5759 5762 5764 5766 5768 5769 5771 5773 5775 5776 5776 5777 5777 5778 5778 5778 5778 5779 5778 5778 5777 5777 5776 5775 5774 5773 5771 5770 5769 5768
5724 5724 5725 5727 5728 5729 5731 5733 5735 5737 5740 5742 5744 5747 5749 5753 5754 5757 5758 5760 5762 5763 5764 5765 5766 5767 5768 5768 5768 5768 5768 5768 5768 5767 5766 5765 5764 5763 5762 5760 5759 5758 5757
5712 5712 5713 5714 5715 5716 5718 5720 5722 5724 5727 5729 5731 5734 5737 5740 5743 5745 5746 5748 5749 5751 5752 5754 5755 5755 5756 5756 5757 5757 5757 5757 5756 5756 5755 5754 5753 5751 5750 5749 5748 5746 5745
5699 5700 5700 5701 5703 5704 5706 5707 5709 5711 5714 5717 5719 5721 5724 5727 5730 5733 5735 5736 5737 5739 5740 5741 5742 5743 5744 5744 5745 5745 5745 5745 5745 5744 5743 5742 5740 5739 5738 5736 5735 5734 5732
5687 5687 5688 5689 5690 5692 5693 5695 5696 5698 5701 5704 5706 5708 5710 5713 5715 5718 5722 5725 5726 5727 5728 5729 5730 5731 5731 5732 5733 5733 5733 5733 5732 5731 5730 5729 5727 5726 5724 5723 5722 5721 5719
5676 5676 5676 5677 5678 5680 5681 5683 5684 5686 5688 5691 5694 5696 5698 5700 5702 5705 5708 5711 5713 5715 5716 5716 5717 5718 5719 5719 5720 5720 5720 5720 5719 5718 5717 5715 5714 5713 5711 5710 5709 5708 5706
5665 5665 5665 5666 5667 5668 5670 5671 5673 5674 5676 5679 5681 5683 5685 5687 5690 5692 5694 5697 5699 5702 5703 5704 5704 5705 5706 5706 5706 5707 5706 5706 5706 5705 5703 5702 5701 5700 5698 5697 5696 5694 5693
5655 5654 5654 5655 5656 5657 5658 5660 5661 5663 5664 5666 5668 5670 5673 5675 5677 5679 5681 5683 5685 5687 5689 5691 5691 5692 5692 5692 5693 5693 5693 5693 5692 5691 5690 5689 5688 5686 5685 5683 5682 5681 5679
5645 5644 5644 5644 5645 5647 5648 5649 5651 5652 5652 5654 5656 5658 5660 5662 5663 5665 5667 5669 5671 5673 5676 5677 5678 5678 5678 5678 5678 5678 5679 5679 5678 5677 5676 5675 5674 5672 5671 5669 5668 5667 5665
5636 5635 5635 5635 5636 5637 5638 5638 5639 5640 5641 5642 5644 5646 5647 5649 5651 5652 5654 5655 5656 5658 5660 5663 5663 5664 5664 5664 5664 5664 5664 5664 5663 5662 5661 5660 5659 5658 5656 5655 5653 5652 5651
5628 5627 5626 5626 5627 5627 5628 5628 5628 5628 5629 5630 5631 5633 5635 5636 5638 5639 5640 5641 5642 5643 5645 5648 5648 5648 5648 5648 5648 5648 5648 5648 5647 5647 5646 5645 5643 5642 5641 5639 5638 5637 5636
5620 5619 5618 5618 5618 5618 5618 5618 5618 5617 5617 5618 5619 5621 5622 5623 5625 5626 5627 5627 5628 5629 5630 5632 5633 5634 5634 5633 5633 5633 5632 5632 5632 5631 5630 5629 5627 5626 5624 5623 5623 5622 5621
5614 5612 5611 5611 5610 5610 5609 5609 5608 5607 5607 5607 5608 5609 5609 5610 5611 5612 5613 5613 5614 5614 5614 5616 5618 5618 5618 5618 5617 5617 5617 5616 5616 5615 5614 5613 5611 5610 5609 5608 5607 5607 5606
5609 5607 5606 5604 5603 5602 5601 5600 5599 5598 5597 5596 5596 5596 5596 5597 5597 5598 5598 5598 5599 5599 5600 5600 5602 5602 5603 5602 5602 5602 5602 5602 5601 5599 5598 5597 5596 5594 5594 5593 5592 5592 5590
5604 5602 5600 5599 5597 5595 5594 5591 5589 5587 5586 5586 5585 5585 5585 5584 5583 5583 5584 5584 5584 5584 5584 5585 5586 5587 5587 5587 5587 5587 5587 5587 5586 5585 5584 5583 5581 5581 5579 5578 5577 5576 5575
5599 5597 5595 5593 5590 5588 5585 5583 5580 5578 5577 5576 5575 5574 5573 5572 5571 5570 5570 5569 5568 5568 5569 5570 5570 5571 5572 5573 5572 5572 5572 5572 5573 5573 5570 5569 5567 5566 5565 5564 5563 5561 5560
5593 5591 5588 5586 5583 5580 5577 5575 5572 5570 5568 5566 5564 5563 5562 5560 5558 5558 5556 5555 5554 5553 5554 5555 5555 5555 5557 5558 5559 5559 5558 5557 5557 5556 5555 5555 5553 5552 5551 5550 5548 5547 5546
5587 5584 5582 5579 5576 5573 5569 5566 5563 5561 5558 5556 5553 5551 5550 5548 5546 5545 5543 5542 5541 5540 5540 5540 5541 5542 5541 5542 5543 5543 5543 5543 5543 5542 5540 5540 5540 5539 5538 5536 5535 5533 5532
5581 5577 5574 5571 5568 5565 5561 5558 5555 5552 5549 5546 5543 5540 5538 5536 5534 5532 5530 5529 5528 5527 5526 5525 5526 5526 5527 5527 5528 5528 5528 5528 5529 5529 5527 5526 5526 5526 5525 5524 5522 5520 5519
5574 5571 5567 5563 5560 5556 5553 5549 5545 5542 5539 5536 5532 5529 5527 5524 5521 5519 5517 5516 5515 5514 5514 5513 5513 5513 5513 5514 5514 5514 5514 5514 5514 5515 5514 5513 5513 5511 5512 5513 5511 5509 5507